Wind_Speed
11 13 15 16 16 14 15 15 14 10 6 7 4 5 7 6 10 16 20 22 24 24 21 19 18 23 26 24 23 22 23 25 27 27 26 25 23 21 21 19 20 21 19 19 18 17 16 15 14 14 14 15 14 15 15 14 14 14 14 13 13 14 13 14 14 13 13 13 12 13 13 12 10 10 10 10 11 11 10 10 10 10 9 9 8 8
12 15 16 16 15 14 14 14 13 11 9 8 3 4 5 4 7 15 21 23 23 23 22 19 18 23 26 24 23 24 24 25 26 27 26 26 24 22 22 20 20 21 20 20 19 18 16 15 15 14 14 14 14 14 14 14 14 14 14 14 13 13 13 13 13 13 13 13 13 13 13 12 12 11 11 10 11 11 10 10 9 9 9 9 9 9
14 17 16 14 14 15 14 13 13 12 11 10 5 4 6 4 7 13 20 22 21 21 21 20 19 23 25 23 22 24 24 25 25 25 25 26 26 24 23 22 21 22 22 21 20 19 18 16 15 15 14 14 14 14 14 14 14 14 14 15 14 13 13 13 12 12 11 12 13 12 12 12 11 10 10 11 11 10 10 9 9 8 9 8 8 8
14 16 16 15 14 15 16 13 12 13 11 9 5 3 4 5 5 9 17 21 19 17 18 18 18 20 23 24 23 22 23 26 26 26 26 25 27 26 23 24 23 22 22 22 21 20 19 18 16 15 15 14 15 14 14 14 14 14 14 15 14 13 13 12 12 12 10 10 11 11 11 11 11 10 10 11 11 10 9 8 8 8 7 7 7 7
12 12 15 17 15 15 16 13 11 13 12 9 8 5 5 5 2 6 16 21 18 14 16 19 17 16 20 22 23 23 23 25 26 28 28 25 26 27 23 24 24 22 23 22 22 22 20 19 17 16 15 15 15 14 14 14 14 14 14 14 14 13 13 12 12 11 11 11 10 10 10 10 10 10 10 10 11 9 8 7 7 7 6 6 6 6
13 10 14 17 17 16 15 12 10 12 13 11 7 5 5 3 2 6 17 21 16 11 16 21 14 11 19 21 21 24 23 23 24 26 28 26 27 27 25 25 26 24 23 23 22 22 21 20 18 17 16 15 14 14 14 14 14 14 14 14 14 13 12 12 12 12 12 11 11 11 10 10 10 10 10 9 9 9 8 7 7 7 6 6 6 6
14 11 12 15 18 18 15 13 12 12 12 7 7 4 1 2 4 10 17 18 14 11 17 23 13 8 20 25 24 23 22 22 23 23 26 28 27 27 26 25 26 26 25 24 23 22 22 21 19 18 17 16 15 14 14 14 14 14 14 14 14 13 12 11 12 12 12 12 11 12 12 12 11 10 10 10 9 9 9 8 8 8 7 6 6 6
16 14 13 14 17 18 17 14 14 14 11 4 6 3 2 6 8 13 18 14 11 11 17 23 14 7 18 28 27 24 21 23 26 26 26 28 28 27 27 25 26 28 27 26 25 24 24 23 19 18 17 16 15 15 15 15 15 14 14 14 14 13 12 11 12 12 12 13 12 12 12 12 11 10 10 9 9 8 8 9 9 8 8 7 6 6
16 15 12 12 12 14 15 15 15 16 12 6 6 6 7 10 7 9 15 12 8 9 14 21 16 5 10 20 25 26 25 24 27 28 28 28 29 28 27 26 27 28 27 25 26 26 26 23 19 19 18 17 16 15 15 15 15 14 14 15 14 13 12 12 12 12 13 13 13 12 11 11 11 11 11 10 9 8 8 9 8 8 8 7 7 7
11 11 9 10 11 11 13 14 15 17 14 8 7 7 9 12 9 9 13 11 8 6 9 19 19 8 4 13 22 25 27 30 30 29 27 28 30 28 28 28 28 28 26 25 25 27 27 23 19 19 18 17 16 16 16 16 16 15 15 15 14 14 13 12 12 12 13 13 13 12 11 11 11 10 11 10 9 9 8 8 8 8 7 7 7 7
9 9 11 12 13 13 13 13 13 15 15 9 7 8 9 13 13 12 15 13 8 6 8 16 21 13 4 9 22 23 20 26 32 31 28 28 30 30 29 28 28 27 26 25 25 26 27 24 21 20 20 19 18 17 17 16 15 15 15 15 15 14 13 13 13 13 13 12 12 12 11 11 11 10 11 10 9 9 8 8 8 8 7 7 7 7
10 11 13 12 14 14 14 15 13 12 14 11 9 10 11 12 10 7 13 14 7 5 6 10 19 18 7 9 20 19 11 14 25 30 31 31 32 32 30 28 27 27 26 27 27 27 26 24 23 22 21 21 20 19 18 17 16 16 15 15 15 15 15 14 14 14 13 12 11 11 11 10 11 11 11 10 10 9 9 8 8 8 7 7 6 6
15 13 10 7 13 16 16 17 15 12 12 11 11 14 12 7 5 3 7 9 4 3 2 5 17 18 14 15 16 17 15 14 20 25 29 33 34 34 33 31 28 28 28 28 29 28 25 25 24 23 22 22 21 20 18 18 18 17 16 15 15 15 15 15 15 15 14 13 11 11 10 10 11 11 10 10 10 10 9 8 8 8 7 7 7 7
16 14 11 9 12 18 19 17 16 12 14 14 13 16 11 5 4 5 5 3 4 2 5 4 14 11 12 15 13 17 18 14 16 19 23 29 32 33 35 33 30 29 30 29 29 28 26 25 25 24 24 24 22 21 19 19 19 17 17 15 15 15 16 16 16 16 16 14 12 11 11 10 11 11 10 10 10 10 9 8 8 7 7 7 7 6
15 13 17 17 14 18 20 17 15 12 14 17 15 15 14 9 6 5 3 2 5 4 12 8 9 4 9 12 10 15 16 10 12 15 17 23 27 30 34 35 33 33 32 31 29 28 27 25 25 25 25 24 23 23 21 19 19 18 17 16 14 15 16 16 16 17 16 15 14 13 12 11 11 11 10 10 10 8 8 7 7 7 6 6 6 5
14 14 17 19 15 17 20 19 15 13 14 16 16 16 16 14 9 7 3 4 7 3 9 11 7 2 8 12 12 16 16 11 12 14 17 21 24 28 33 36 37 35 34 32 31 30 28 26 26 26 25 24 24 23 22 21 19 18 17 16 16 15 15 16 17 16 16 16 15 14 13 12 12 11 10 10 9 8 8 7 6 7 6 5 5 5
11 14 13 18 15 16 21 20 17 16 12 10 15 18 16 12 10 9 6 7 10 7 5 11 9 9 9 9 14 18 16 17 16 15 18 19 21 27 33 38 39 38 36 33 32 31 29 28 28 27 25 24 24 23 23 23 20 19 17 17 17 16 16 17 17 17 16 16 15 14 14 13 12 11 10 10 9 8 9 8 7 8 7 6 6 6
9 15 9 16 15 13 17 18 19 20 12 7 12 16 15 12 9 8 7 7 9 6 4 7 7 11 9 5 14 19 16 19 19 18 18 18 19 24 31 38 40 39 37 33 31 31 30 29 29 28 26 25 25 23 23 23 20 19 18 17 17 17 16 17 17 17 17 16 15 15 15 14 13 12 12 11 10 10 9 9 8 8 7 7 7 6
7 13 5 13 14 12 14 15 19 23 18 13 11 10 13 13 8 8 6 5 5 4 2 4 6 10 9 6 14 19 18 20 20 19 19 17 18 20 26 35 39 40 38 35 34 33 31 30 29 28 27 25 24 23 23 22 20 20 19 18 18 18 17 17 17 18 17 16 16 15 15 15 14 14 13 12 11 11 10 10 9 8 8 8 7 6
9 12 7 9 12 11 13 15 19 22 21 18 13 9 13 14 8 8 7 6 5 1 1 0 3 6 10 11 14 17 18 19 18 19 18 15 16 17 20 28 35 40 40 38 37 35 33 32 29 28 26 24 24 24 23 22 20 20 20 19 19 19 19 19 19 19 18 17 17 16 16 15 15 15 14 13 13 12 11 10 9 8 8 8 7 6
11 11 10 9 12 12 14 18 18 19 21 21 17 14 14 14 12 11 10 9 6 2 2 2 1 2 8 13 14 14 16 19 19 18 14 14 16 17 18 24 32 39 40 39 39 38 36 34 30 27 26 25 25 25 23 22 22 21 20 20 20 20 20 21 21 20 19 18 17 17 17 16 16 16 16 15 14 13 12 11 10 8 9 9 8 8
9 8 9 8 11 13 14 16 16 17 19 21 21 18 14 14 17 13 8 10 10 5 4 4 1 2 8 13 14 13 15 19 20 17 13 12 16 16 18 23 28 33 38 40 40 40 40 36 31 29 28 28 26 24 23 22 22 22 21 21 20 20 20 21 21 21 19 19 18 17 17 16 16 17 16 16 16 15 14 12 11 10 10 10 9 9
7 7 9 12 13 14 13 13 17 18 18 21 23 21 17 15 18 16 10 8 10 9 9 7 2 5 8 11 13 14 15 15 16 16 13 13 14 15 18 21 23 28 37 42 41 39 37 34 32 31 31 30 28 26 26 26 26 24 23 22 22 21 20 20 21 20 20 20 19 18 17 17 16 16 17 17 17 17 16 15 14 13 12 11 11 11
7 6 8 14 18 18 15 11 16 18 18 21 24 24 22 19 18 18 13 8 9 8 5 3 1 5 11 11 11 13 13 11 15 17 14 13 13 15 18 17 17 24 32 36 36 35 35 34 32 31 30 29 28 27 28 28 26 24 22 22 22 22 22 21 21 21 21 20 20 19 18 18 18 17 17 17 17 17 17 17 16 15 15 14 13 13
5 5 6 11 13 11 9 9 14 18 17 20 22 23 24 21 20 19 17 11 9 8 6 3 1 6 12 12 9 10 10 12 18 20 15 13 14 14 16 15 16 20 23 27 30 31 33 34 32 29 28 27 25 24 24 23 21 21 21 20 20 21 21 22 22 21 22 21 21 21 20 19 19 18 18 17 17 17 17 18 18 17 17 16 15 15
5 5 6 9 9 7 6 6 4 8 14 19 21 21 23 21 20 20 20 16 11 10 10 8 10 15 16 13 11 9 10 13 17 18 16 14 14 13 14 15 16 17 16 23 31 30 29 32 32 28 27 26 25 24 23 21 20 21 21 20 20 21 21 21 21 22 22 22 22 22 21 20 20 19 19 18 18 18 18 18 18 18 18 17 17 17
6 6 7 10 13 15 14 13 11 10 10 17 18 20 20 20 19 19 21 17 10 10 7 1 9 19 16 12 13 12 11 10 11 13 15 15 13 13 14 14 15 16 15 20 29 30 28 31 32 30 28 27 26 25 21 20 21 21 19 19 20 21 21 21 22 22 22 22 22 22 21 20 20 20 20 19 19 19 19 18 18 18 18 18 17 18
8 9 8 10 15 18 19 18 15 15 13 11 14 18 19 17 18 19 23 16 7 7 3 9 9 15 13 9 10 11 11 9 7 8 12 13 12 12 14 15 15 17 17 19 25 28 27 28 30 31 32 30 28 25 22 21 22 22 21 20 20 21 21 22 21 20 21 22 22 22 21 20 20 20 20 20 19 19 19 19 19 19 19 19 18 17
8 9 9 10 12 14 16 18 16 14 15 15 14 18 20 18 16 20 24 20 12 8 6 9 8 14 13 9 8 7 7 4 4 8 12 13 13 12 14 15 15 15 16 18 21 24 25 25 25 27 28 28 25 24 22 22 23 24 23 22 21 21 22 22 22 21 21 22 23 23 22 22 22 22 22 21 21 20 19 19 20 20 21 21 19 18
7 9 9 10 12 13 14 16 17 16 17 20 18 16 18 20 20 22 23 22 19 11 7 3 3 11 12 8 8 7 6 4 4 10 14 13 13 15 15 15 14 14 15 18 20 22 23 23 23 22 21 22 22 22 21 21 22 24 25 24 24 25 26 25 25 25 25 24 24 25 25 24 24 24 24 24 23 22 22 21 22 22 22 22 21 20
6 7 7 8 11 13 12 13 17 19 20 21 16 9 9 11 11 14 16 19 19 11 7 6 5 9 9 7 7 7 7 6 7 13 19 14 12 16 17 16 16 15 15 17 19 21 22 23 23 21 20 21 22 22 21 20 19 21 24 25 26 27 28 28 28 28 28 28 28 28 28 27 27 26 26 26 26 26 26 25 25 25 25 24 24 23
6 7 7 8 11 12 11 11 11 13 17 14 7 6 9 12 10 9 5 2 6 4 3 6 8 11 10 8 7 6 6 5 6 14 22 17 14 16 15 15 16 15 14 13 14 16 17 18 19 20 21 24 25 24 23 21 21 22 24 24 25 26 28 31 32 32 32 33 33 33 33 32 30 30 29 29 29 29 28 28 28 28 28 28 28 27
6 9 8 8 9 10 10 9 10 7 6 2 8 8 7 10 8 3 6 8 6 5 3 5 10 11 10 9 8 7 8 5 4 11 17 15 15 15 13 13 15 13 12 13 13 14 16 16 18 20 22 25 26 26 25 23 24 24 23 23 23 24 26 28 29 30 32 34 36 36 36 35 34 33 33 33 33 32 32 32 31 31 31 31 31 31
6 8 9 6 8 10 9 7 8 6 1 3 10 8 4 7 6 2 4 5 5 7 5 6 10 10 9 9 9 9 9 8 6 9 11 12 14 15 14 13 11 11 15 17 15 16 18 18 19 20 21 22 24 25 24 23 24 23 22 22 23 23 24 25 25 27 30 32 34 35 36 37 36 36 35 35 36 36 35 35 36 36 35 35 35 34
7 8 8 6 7 9 8 5 4 1 4 3 8 7 2 3 4 5 7 7 6 5 5 7 9 10 10 10 11 12 12 11 9 8 9 11 13 13 11 10 9 11 17 18 16 18 20 19 19 20 21 22 23 24 25 25 25 24 23 24 25 26 27 27 26 27 26 26 28 30 33 35 36 37 37 37 37 36 36 36 36 37 36 37 37 36
6 6 8 8 8 8 5 4 3 3 5 3 5 7 4 2 3 2 5 7 6 6 8 10 11 11 11 10 10 12 13 13 13 12 11 12 12 11 9 8 9 12 15 17 17 19 21 22 22 23 23 23 24 25 27 27 26 25 26 26 27 29 29 28 26 25 23 22 22 24 26 29 30 32 33 34 35 34 34 34 34 34 34 35 36 35
7 6 6 7 7 7 4 1 4 7 6 4 4 6 5 5 5 5 9 9 4 5 7 9 9 9 11 11 10 12 14 15 15 14 12 11 12 13 12 12 13 15 16 17 17 18 21 23 24 25 26 26 27 27 28 28 28 28 28 28 29 30 30 28 26 26 25 23 22 23 24 25 26 26 28 30 32 33 33 33 33 33 33 34 33 32
7 7 6 5 3 4 3 1 5 7 5 5 5 5 4 7 5 6 11 12 6 4 5 7 8 7 9 11 11 12 13 13 14 14 11 11 13 15 15 16 18 17 15 14 12 13 17 21 21 23 25 24 24 25 27 27 27 27 27 27 28 28 28 27 27 28 29 28 27 27 27 26 26 26 26 26 28 30 31 31 30 30 30 30 29 30
6 7 7 5 3 4 3 3 3 3 4 9 8 5 2 8 12 10 8 10 9 6 5 6 8 7 7 9 11 11 9 8 11 13 12 12 13 15 16 16 16 13 9 8 8 9 12 16 18 21 23 21 18 18 22 23 24 25 26 26 26 27 27 27 28 29 29 28 26 25 24 25 26 26 25 25 27 29 29 27 26 25 24 25 26 27
8 8 7 5 5 5 6 3 3 3 2 7 8 4 2 8 11 9 4 5 6 5 5 7 7 7 6 6 6 6 3 2 4 7 8 9 10 12 14 15 13 10 7 8 9 11 12 13 15 17 20 20 17 16 17 19 20 22 22 22 23 24 24 26 27 27 27 24 22 20 20 21 22 23 24 26 29 30 29 26 24 22 21 22 24 25
6 7 9 9 6 5 7 5 2 2 3 4 3 3 3 4 2 2 4 4 3 4 5 6 6 6 5 3 2 2 2 5 5 5 5 5 6 8 10 12 13 12 11 10 10 12 13 13 14 15 17 18 18 17 17 19 20 20 21 20 20 20 19 20 20 21 22 21 20 18 17 17 18 20 22 26 28 28 26 24 23 21 20 21 22 23
4 2 3 5 4 5 8 6 5 3 5 4 2 2 2 2 3 6 7 6 4 3 2 4 7 8 6 4 4 4 3 5 6 6 5 3 2 2 5 9 11 12 12 10 8 9 10 11 12 12 13 15 17 18 19 20 19 18 18 18 19 19 18 16 15 15 15 16 16 14 13 14 16 17 21 25 26 24 22 22 23 21 19 20 21 21
3 1 5 7 4 6 8 6 5 3 5 4 3 3 1 4 9 8 5 4 5 3 1 2 5 6 4 3 3 5 5 5 4 4 4 3 3 2 1 4 6 9 10 9 9 9 9 9 9 9 10 11 13 16 18 18 16 14 13 14 16 18 19 17 16 14 12 12 13 12 12 13 15 17 20 23 21 18 19 21 22 21 19 19 20 19
2 1 5 7 6 6 8 6 4 4 3 2 2 2 2 6 10 9 4 3 4 2 1 2 2 2 2 2 2 2 2 2 3 3 3 3 2 2 2 1 1 4 6 7 8 10 9 8 8 8 9 10 10 12 14 14 13 12 11 11 12 14 16 17 16 16 14 12 12 13 13 14 15 17 18 17 15 14 18 21 21 21 18 18 19 21
1 3 5 7 6 8 9 7 5 4 2 1 1 3 6 9 10 8 5 3 2 2 2 2 1 2 1 1 0 0 1 1 1 1 3 3 1 1 1 0 0 3 5 6 8 9 9 10 9 9 9 9 9 9 10 11 12 11 11 10 10 11 12 12 13 14 14 13 13 14 14 13 14 15 15 14 14 16 18 20 21 21 20 18 18 20
2 4 5 5 6 9 10 8 5 4 2 2 3 3 5 7 7 5 4 3 3 2 2 2 2 2 1 1 2 3 2 1 1 2 2 2 2 3 2 3 4 4 6 8 10 10 10 11 11 10 9 9 9 9 10 10 11 10 10 10 10 10 9 9 10 10 11 12 11 11 11 11 11 11 12 13 15 16 17 19 19 20 20 19 18 19
2 6 6 3 2 6 9 8 5 3 1 2 1 2 3 3 3 2 2 2 2 2 2 2 2 1 1 1 1 2 2 3 3 3 3 3 4 5 3 4 6 6 7 7 9 10 10 11 11 10 10 11 11 12 12 12 11 10 10 10 10 10 9 9 9 9 9 10 10 9 10 11 10 9 10 11 12 13 14 15 15 16 17 17 18 19
5 7 7 6 5 6 8 8 6 3 4 4 1 2 2 3 2 2 3 4 4 4 4 4 3 2 2 1 1 2 2 2 4 4 5 6 7 7 6 6 9 9 8 7 8 10 10 10 11 11 12 12 13 13 13 13 12 11 11 10 10 11 10 10 10 9 9 10 11 11 11 12 12 11 10 11 10 10 11 11 10 10 13 15 16 17
6 7 6 7 7 6 7 6 3 2 5 5 4 5 4 3 4 4 5 7 7 7 7 7 6 5 4 4 4 3 3 4 4 4 6 8 9 10 9 9 10 11 10 9 10 11 11 11 12 13 14 14 14 14 14 13 13 12 12 11 11 12 12 11 11 11 12 12 12 13 14 14 14 14 13 13 12 10 11 11 10 9 10 11 11 13
4 5 5 5 5 7 8 8 5 5 7 6 6 6 5 5 5 5 6 9 9 9 9 10 9 8 7 7 8 7 6 6 5 5 8 9 10 11 11 11 12 13 13 13 13 13 13 14 14 14 15 16 16 16 16 15 15 14 14 13 13 13 13 13 13 13 14 14 14 15 15 15 15 15 15 15 15 14 14 14 12 11 12 11 11 11
6 7 8 7 6 10 12 10 7 8 10 9 6 4 4 5 6 6 7 9 10 10 10 11 11 10 9 9 10 10 10 9 8 9 10 10 10 11 12 13 13 14 15 15 16 15 15 16 16 17 17 18 19 19 19 18 18 17 16 16 16 16 15 16 16 16 17 17 18 18 18 17 16 17 17 17 16 16 17 17 16 15 15 14 14 14
Wind_Direction
199 213 219 220 220 220 223 227 233 234 254 284 265 225 235 212 205 198 186 180 173 172 171 168 171 168 167 168 171 172 168 170 170 168 170 171 174 171 167 181 178 167 174 178 176 177 184 193 187 181 178 173 170 165 162 159 157 155 153 154 151 148 147 145 144 145 146 149 153 154 153 154 157 151 146 154 161 157 156 157 154 154 155 152 150 145
204 219 223 221 222 224 227 229 231 229 235 251 238 215 225 187 189 192 188 182 170 169 175 171 167 168 169 170 173 175 169 171 175 173 173 175 176 172 171 183 180 169 177 183 178 177 187 192 187 186 184 180 174 168 168 165 163 161 158 160 156 152 151 150 152 151 149 153 154 154 153 153 154 151 149 156 161 158 157 158 156 156 157 156 153 146
208 225 225 223 226 227 233 234 225 226 229 221 193 193 206 163 155 182 191 187 171 166 171 170 167 168 171 174 177 178 174 173 175 177 179 178 177 172 174 185 182 175 181 186 181 179 188 192 188 189 188 183 179 175 174 171 170 167 164 166 161 159 158 156 158 156 157 161 155 152 154 153 151 147 143 146 153 158 157 156 157 158 158 156 155 149
212 228 225 223 227 225 234 235 220 228 232 208 189 191 180 150 146 182 193 189 180 176 173 169 167 169 175 180 182 182 178 176 177 181 182 184 183 174 177 189 182 180 188 185 182 183 189 196 190 189 191 186 183 183 180 177 175 173 172 171 168 166 165 163 163 160 163 166 156 156 161 158 151 146 144 145 150 157 155 152 156 157 159 158 156 154
222 228 221 222 228 224 230 232 215 219 225 221 230 225 157 142 178 206 192 184 176 180 181 169 165 175 183 186 191 192 187 181 182 186 182 185 190 176 176 193 183 181 194 187 184 185 189 200 194 187 193 190 188 187 183 183 180 178 178 177 175 173 170 169 165 163 165 167 162 161 164 161 154 150 152 152 151 154 152 153 157 156 160 164 160 161
231 230 218 216 222 223 227 229 206 208 229 230 202 170 143 149 257 208 184 179 171 177 186 174 164 186 194 194 199 202 198 189 186 190 186 184 193 182 178 197 188 182 196 189 187 189 190 203 198 187 193 191 191 190 186 187 185 184 184 183 183 180 178 174 167 168 170 169 167 161 159 163 162 159 159 157 154 156 159 162 164 163 166 169 167 171
230 232 221 214 222 219 217 219 201 206 235 223 146 139 266 201 205 183 170 170 173 185 192 185 174 179 197 203 208 208 205 200 193 194 192 186 191 186 182 199 193 185 196 191 188 190 193 208 203 188 193 192 192 192 188 191 190 189 188 187 190 187 186 180 172 174 174 174 173 165 165 168 167 167 166 166 168 166 168 175 174 171 174 176 176 178
223 230 221 223 231 213 204 212 205 212 230 197 152 196 194 150 160 173 170 164 172 180 183 190 188 166 194 206 211 211 206 205 203 201 201 194 192 188 183 198 198 191 198 196 189 189 195 210 206 190 194 193 192 194 192 195 194 193 193 191 193 193 191 184 179 180 177 178 178 174 176 174 170 172 172 177 183 174 174 185 183 176 179 179 178 184
213 230 216 217 225 199 199 210 206 215 221 202 201 206 176 168 163 173 176 169 166 166 169 187 197 177 189 202 206 212 212 210 210 208 206 200 198 195 186 194 202 198 203 200 192 191 197 210 204 191 195 193 193 197 196 198 196 195 197 195 195 196 195 189 184 183 182 182 182 182 185 178 175 180 179 181 186 181 178 185 186 182 185 182 180 191
209 222 206 207 213 202 211 215 208 214 214 209 223 223 201 187 176 176 186 181 169 175 188 193 197 193 190 196 197 206 214 215 216 214 211 205 204 202 191 193 202 202 204 202 196 194 198 207 203 193 194 194 195 199 198 201 199 196 199 200 199 198 196 193 189 187 188 189 186 187 189 182 185 190 185 183 187 188 187 187 188 191 196 194 189 197
250 219 203 210 215 217 225 221 210 209 209 213 217 221 220 199 188 181 181 183 180 198 216 204 200 196 188 203 199 202 212 217 217 215 213 210 207 205 197 194 201 202 202 201 198 199 200 203 201 196 194 193 195 200 201 201 198 196 199 202 202 201 198 195 195 194 196 199 192 190 192 189 193 193 187 188 192 196 197 196 197 199 205 209 205 207
248 201 190 210 221 219 227 220 197 189 202 213 218 223 230 217 208 186 171 178 191 207 218 215 206 202 208 223 206 197 197 210 213 212 211 210 207 205 201 198 201 202 201 199 198 201 202 199 199 198 196 194 195 200 204 202 200 200 202 204 203 202 201 198 199 201 203 206 201 196 198 198 197 194 188 188 194 201 202 201 203 206 213 219 219 221
222 204 180 214 220 207 222 216 181 171 196 207 217 223 230 215 202 228 182 179 213 239 265 215 197 201 225 235 219 199 186 193 207 208 210 211 208 203 201 201 202 202 202 201 201 204 203 200 199 198 197 198 196 200 206 205 204 205 204 206 204 203 204 202 202 204 207 210 206 203 206 201 199 199 194 189 194 203 204 204 209 214 219 221 219 223
212 222 212 228 221 205 219 214 180 183 209 215 219 216 220 213 199 238 208 188 260 191 80 171 188 199 235 234 231 212 194 192 204 205 207 210 208 205 203 201 200 200 202 204 205 206 204 201 201 199 199 200 199 200 206 208 208 207 205 206 205 204 204 204 204 205 208 210 207 205 209 204 200 199 197 193 196 201 202 206 215 221 225 228 224 222
206 224 215 213 215 207 213 211 194 196 213 220 224 218 219 215 215 247 182 156 264 140 108 153 190 213 236 224 220 204 191 200 216 207 203 206 208 209 207 203 199 199 201 205 207 207 206 203 203 203 202 202 203 202 204 210 211 207 206 207 208 207 206 206 207 207 208 210 208 206 206 206 205 199 196 198 198 200 207 212 222 228 231 238 240 231
224 232 213 196 200 203 203 209 209 209 214 214 216 221 222 215 218 246 197 173 255 230 136 166 176 153 216 216 202 188 179 192 218 211 197 198 205 208 208 205 204 202 199 203 207 206 206 205 203 206 205 203 206 206 204 209 212 209 206 209 211 210 208 208 209 209 210 211 211 209 206 208 209 204 200 205 200 198 210 216 227 238 237 238 243 239
264 264 228 185 188 196 198 210 214 212 215 200 208 221 220 214 222 245 243 209 242 270 164 162 154 149 175 192 190 190 183 184 202 204 192 195 199 203 206 207 209 208 202 202 206 205 207 206 205 208 207 205 208 208 207 210 212 211 208 209 212 211 209 210 210 211 211 211 213 212 210 210 211 208 208 212 207 206 215 216 222 237 242 237 233 236
293 294 252 175 186 196 195 211 212 212 221 197 207 223 216 213 223 237 259 232 228 257 188 156 142 161 180 178 177 187 188 182 191 194 189 197 199 200 206 209 211 211 205 203 204 205 208 208 207 209 208 206 208 209 212 214 213 212 210 210 213 213 211 211 212 213 212 212 213 215 214 213 212 212 212 213 213 215 220 221 223 233 243 244 241 241
287 293 247 168 193 198 188 209 212 213 226 223 217 226 216 215 213 207 237 251 233 254 213 149 123 162 194 199 177 181 180 176 183 191 193 199 199 199 206 210 211 210 206 203 202 202 206 207 208 210 209 206 207 210 215 215 213 212 211 211 212 212 213 212 212 214 215 213 212 215 218 216 216 219 219 219 221 222 224 226 228 233 239 245 248 248
286 285 260 196 203 197 187 206 215 210 213 221 230 238 222 219 217 211 226 253 253 306 323 270 93 158 182 183 184 183 181 181 184 191 197 201 200 200 206 209 208 208 208 206 204 204 204 206 207 208 208 206 206 210 215 214 214 214 213 213 212 212 213 214 214 215 216 215 213 215 218 218 218 222 224 225 227 228 228 229 230 233 240 246 250 252
270 264 262 229 209 214 208 203 211 208 200 206 218 224 217 202 202 221 238 246 235 117 134 234 342 182 178 174 183 189 195 201 196 193 198 201 200 203 209 209 206 207 211 212 209 205 200 201 205 207 208 208 207 210 213 214 213 213 214 214 213 214 215 215 216 217 217 217 217 218 219 218 218 221 225 228 232 234 233 233 233 237 244 250 254 256
277 262 273 251 212 225 225 204 210 219 206 203 210 218 220 198 188 201 224 229 224 200 206 229 170 165 189 183 182 188 197 198 194 198 208 202 198 203 208 209 208 210 213 211 209 205 199 197 199 204 206 204 205 209 212 214 213 210 212 212 212 214 216 217 218 218 218 220 221 222 221 221 221 221 224 228 234 238 238 239 239 239 243 247 250 253
295 280 282 275 261 266 262 229 216 221 217 213 213 215 227 224 205 204 214 218 224 225 228 243 210 151 185 187 180 186 194 195 194 198 206 205 199 203 207 207 211 214 212 208 206 205 202 196 193 202 206 202 203 206 206 207 206 204 208 210 210 211 211 215 219 219 220 222 224 225 225 227 227 226 227 228 232 236 238 240 240 240 241 242 245 248
272 266 267 271 277 283 285 257 213 208 221 225 218 212 223 236 224 222 236 228 220 233 235 273 360 160 185 184 179 195 201 204 204 196 197 207 202 202 209 206 207 214 214 211 207 204 205 202 198 202 206 204 206 209 209 208 203 202 207 210 212 214 210 211 216 219 221 222 225 227 228 232 232 231 232 231 231 235 237 238 239 240 241 241 245 247
276 271 267 273 277 264 261 250 203 193 213 230 225 212 214 227 228 236 257 248 220 232 227 216 191 180 191 187 188 207 194 181 192 190 192 208 204 200 207 202 201 212 216 213 208 204 206 207 205 202 203 207 211 215 219 217 208 202 207 211 217 221 214 209 213 219 222 223 226 228 229 233 234 235 236 235 235 236 238 239 240 242 243 244 247 250
296 291 258 261 267 243 245 275 232 200 214 224 232 224 210 213 224 236 250 244 226 230 233 219 183 171 180 188 185 186 176 173 183 181 181 197 204 200 200 199 196 200 206 208 208 209 208 206 205 203 204 209 214 217 221 224 217 207 210 218 224 226 221 214 216 221 223 225 228 229 230 232 234 237 240 240 239 239 240 242 243 245 248 247 247 251
280 288 259 253 264 269 278 295 316 311 246 212 224 237 222 210 217 235 246 242 230 232 248 10 148 164 169 183 185 181 187 198 192 177 174 183 195 195 194 195 189 185 191 198 201 206 209 207 206 205 207 212 215 217 223 234 233 223 221 223 221 222 224 223 222 222 223 227 231 232 233 233 234 237 241 242 241 241 243 245 245 246 248 247 244 245
261 268 266 261 261 266 271 275 289 299 277 230 219 236 241 224 208 222 236 237 237 230 174 74 121 162 156 158 175 180 191 209 216 190 177 178 186 189 190 192 186 184 191 194 193 196 200 204 208 210 212 215 218 220 226 234 233 227 225 224 220 222 229 232 233 229 227 231 235 237 238 238 239 239 240 243 243 243 244 246 246 246 246 248 246 244
262 265 270 269 261 261 263 264 269 270 267 266 243 227 239 240 216 217 225 225 235 231 131 89 120 151 153 165 173 171 178 199 224 199 182 180 184 184 182 184 184 184 190 191 192 196 199 202 207 211 211 211 215 221 226 228 226 224 225 225 223 226 230 235 239 239 238 240 241 242 242 242 243 243 243 246 247 245 245 246 247 247 247 248 250 249
266 263 266 270 269 269 263 256 254 247 249 265 259 232 231 237 232 233 227 219 228 221 155 137 151 139 150 180 189 197 204 204 215 199 188 182 181 181 176 173 179 185 188 191 194 199 206 209 212 214 214 213 217 219 218 220 226 230 230 226 224 226 228 232 237 241 244 246 247 247 245 244 244 246 247 248 249 249 247 247 247 247 248 249 250 252
266 266 270 273 268 265 263 254 243 237 244 259 266 265 271 272 267 262 242 225 234 230 166 174 171 136 142 168 184 202 207 221 238 206 191 182 180 185 178 167 174 180 179 186 194 200 208 214 216 218 215 211 209 206 205 209 219 229 233 231 229 230 232 234 236 240 243 245 246 247 246 246 246 247 248 249 250 251 251 251 251 250 249 250 250 250
272 272 271 277 268 251 251 267 265 245 241 255 294 340 330 333 346 353 7 182 224 244 176 163 143 136 148 165 182 196 200 244 254 200 190 186 181 182 177 173 180 179 170 174 184 192 200 204 208 208 204 202 201 201 204 207 213 224 235 238 236 235 236 238 240 242 244 244 243 242 242 243 245 247 250 252 253 254 255 255 255 254 252 250 250 249
274 270 270 281 275 255 249 279 318 311 235 265 1 342 323 338 335 344 58 73 99 108 128 157 150 154 168 176 188 197 197 204 191 182 188 190 182 180 187 191 182 173 178 182 179 185 190 189 194 200 203 207 211 212 214 216 219 226 233 236 235 233 234 237 241 244 246 246 245 242 241 243 244 247 250 253 256 258 259 258 257 256 255 252 251 250
272 268 273 274 266 271 276 286 322 336 154 54 3 334 312 357 355 154 114 72 96 112 113 133 147 159 172 180 187 187 184 181 176 178 182 185 188 191 197 196 179 175 196 196 187 195 199 194 194 199 204 210 213 211 211 213 215 217 219 220 222 224 229 235 243 250 253 252 249 246 244 245 247 248 250 253 255 257 260 261 261 260 257 255 253 251
278 269 270 268 259 268 281 285 298 355 135 95 16 13 22 14 33 101 98 77 90 123 150 153 154 164 171 177 182 179 174 175 177 179 177 183 196 197 189 183 179 194 209 206 199 208 210 203 199 200 203 208 209 207 206 207 210 216 221 223 223 226 232 240 251 261 261 253 247 245 245 246 248 250 253 254 254 255 258 261 263 263 261 258 256 255
277 275 270 265 256 248 256 292 277 168 148 137 52 41 41 30 25 58 69 67 91 128 145 150 156 174 184 183 179 178 180 180 178 179 183 190 199 200 190 184 188 201 214 213 209 214 217 212 208 208 211 213 212 212 212 215 222 230 236 240 241 242 246 250 253 256 253 246 245 248 249 250 251 252 254 256 257 260 261 262 263 264 263 260 259 258
265 274 270 258 249 236 234 29 116 140 143 135 83 64 83 85 50 58 80 81 110 144 149 165 163 161 173 176 176 185 193 194 188 183 182 188 198 201 200 204 209 216 224 224 217 219 226 224 219 219 222 225 225 227 227 231 237 243 246 248 250 251 254 253 247 245 244 245 249 254 255 256 257 256 256 258 262 264 263 262 261 261 260 260 260 259
258 251 250 250 246 225 217 162 144 151 172 174 117 82 131 130 93 89 91 81 81 105 133 183 180 159 161 164 175 202 215 205 185 169 164 176 185 186 188 195 202 209 222 230 224 223 233 237 235 231 230 230 231 234 237 239 242 243 246 248 249 251 252 250 247 245 245 246 251 257 259 259 260 261 261 262 264 263 261 259 258 258 261 261 260 258
238 237 249 244 215 195 190 214 219 200 198 182 146 91 144 150 136 136 107 67 57 68 96 152 172 184 182 166 175 199 211 201 179 169 170 175 172 171 178 188 197 205 223 244 242 238 241 241 241 242 241 238 239 241 242 245 246 246 248 249 249 250 249 247 246 246 246 248 252 258 259 257 256 258 259 259 259 257 256 255 255 255 257 257 256 253
217 227 232 208 194 192 179 195 262 292 238 195 167 117 135 155 149 157 149 73 62 67 83 117 145 173 190 191 204 209 181 104 140 160 170 176 174 176 182 187 198 215 247 268 261 257 255 244 237 243 247 248 252 256 255 256 258 259 258 255 250 249 248 246 245 245 245 248 251 252 254 255 256 255 255 254 255 256 256 257 258 257 255 254 254 251
223 223 218 208 210 205 181 163 156 227 232 228 204 173 183 196 203 174 155 140 107 86 89 95 105 120 140 157 225 265 2 38 58 95 133 168 186 198 203 205 214 229 249 264 260 250 251 248 241 243 249 251 257 265 269 271 272 272 271 265 256 251 248 247 247 246 244 244 245 245 244 247 251 252 253 252 253 254 257 259 261 261 259 261 261 257
243 262 273 249 220 189 183 159 122 171 228 245 241 226 196 153 109 106 129 150 152 139 120 83 81 86 89 87 87 92 85 64 66 89 108 122 141 179 203 211 218 226 232 237 235 230 233 234 231 231 237 245 255 263 267 268 269 271 272 267 259 252 247 246 249 249 244 241 240 239 234 231 235 243 251 253 254 255 256 258 261 262 262 264 264 258
246 345 14 6 39 114 142 141 125 181 239 241 225 236 218 141 128 119 130 171 176 182 221 50 72 80 82 80 76 88 95 82 63 73 82 71 57 63 122 183 199 212 215 213 212 214 216 219 224 230 234 241 251 259 262 262 261 261 265 267 262 254 248 247 250 253 251 243 238 238 238 232 228 233 242 250 258 260 254 254 258 261 263 265 261 255
262 158 72 33 34 98 129 144 156 181 205 208 207 203 140 130 131 128 139 177 186 203 359 46 45 38 61 75 61 70 90 66 36 28 20 17 30 31 14 41 192 215 215 210 210 212 217 226 236 245 250 251 255 258 257 255 256 256 259 264 261 256 253 252 253 255 257 253 246 244 245 242 237 237 241 247 252 248 244 247 254 257 260 262 259 255
160 114 80 51 60 105 129 146 158 166 156 101 157 158 141 142 152 161 179 213 245 295 19 70 58 21 33 71 102 249 290 355 350 311 317 322 320 293 273 155 181 241 237 233 230 228 232 239 243 246 251 254 258 260 254 249 252 256 255 253 252 252 254 257 258 258 258 256 255 252 249 247 244 244 247 249 247 243 242 247 252 255 256 259 260 260
128 102 87 70 79 100 111 120 134 158 168 134 140 154 153 158 174 191 213 252 278 308 360 51 81 77 90 147 195 222 221 189 210 268 288 266 258 270 242 177 180 227 248 256 261 258 249 245 243 240 241 243 248 252 249 245 246 247 244 243 244 244 245 250 255 257 253 249 248 249 251 252 249 245 247 249 250 252 254 254 255 258 259 260 261 264
132 123 121 122 93 97 109 116 125 144 102 68 121 187 185 182 197 218 232 254 283 309 333 2 53 68 86 143 206 246 222 184 193 219 228 227 238 255 244 185 184 217 243 253 261 262 255 250 248 243 239 240 244 247 247 244 240 236 235 236 238 241 244 245 245 246 246 246 245 245 249 255 255 250 246 246 248 252 257 261 264 266 268 268 267 267
136 129 124 127 128 134 144 147 148 137 96 87 118 213 210 212 235 261 266 265 266 272 287 300 310 310 306 298 293 299 286 241 222 225 234 238 238 242 235 201 197 219 238 244 248 252 252 253 255 254 250 248 248 248 248 245 242 240 240 239 240 243 247 248 246 246 249 253 256 255 254 256 257 256 253 249 245 243 248 255 259 262 267 271 272 271
137 124 126 139 141 150 165 161 139 102 119 147 214 254 266 257 252 259 267 273 277 279 279 280 277 276 278 277 274 280 285 274 256 245 245 242 238 237 234 223 222 232 242 247 249 249 248 249 254 258 258 255 253 251 248 246 248 250 250 252 254 254 255 256 258 259 260 261 261 261 260 259 259 259 261 262 261 258 257 257 254 252 260 267 269 268
146 127 142 163 154 150 162 165 147 140 161 188 243 269 275 275 271 268 271 278 282 284 282 282 281 278 273 271 269 266 266 268 269 263 254 249 247 245 239 234 236 240 244 247 249 246 245 246 248 253 256 257 255 254 252 253 255 257 259 263 266 267 269 270 272 273 275 275 275 272 269 267 265 263 263 264 265 265 266 265 261 256 255 256 259 261
183 177 171 175 170 162 173 185 170 168 198 223 247 267 273 286 291 288 286 287 287 287 287 287 288 287 281 274 271 268 264 261 262 265 263 261 259 256 248 245 247 248 248 250 250 247 244 243 244 248 252 255 255 255 255 256 256 256 259 263 267 269 271 273 275 278 280 282 284 283 280 275 272 270 268 267 266 266 267 267 265 261 258 256 254 254
Height
3148 3149 3149 3150 3151 3152 3154 3155 3155 3157 3157 3155 3157 3159 3159 3160 3160 3161 3163 3164 3166 3167 3168 3170 3171 3172 3174 3176 3178 3180 3182 3184 3187 3189 3191 3193 3194 3195 3198 3198 3198 3200 3202 3202 3203 3204 3205 3205 3206 3207 3208 3209 3210 3211 3212 3213 3214 3215 3216 3217 3219 3220 3221 3222 3223 3224 3225 3225 3226 3227 3228 3229 3230 3232 3232 3233 3234 3235 3236 3236 3237 3238 3239 3239 3240 3241
3147 3148 3148 3149 3151 3152 3153 3154 3155 3156 3157 3156 3156 3158 3159 3159 3159 3160 3163 3164 3165 3166 3167 3169 3171 3172 3174 3176 3179 3180 3182 3184 3186 3188 3190 3192 3193 3195 3198 3198 3199 3201 3202 3202 3203 3204 3205 3206 3206 3207 3208 3209 3210 3211 3212 3213 3215 3216 3217 3218 3219 3220 3221 3222 3223 3224 3225 3225 3227 3228 3228 3229 3231 3232 3233 3234 3235 3236 3236 3237 3238 3239 3239 3240 3241 3242
3147 3146 3147 3149 3150 3152 3152 3153 3154 3156 3157 3155 3155 3157 3158 3159 3159 3160 3162 3163 3164 3165 3166 3168 3170 3172 3174 3176 3178 3180 3181 3183 3186 3188 3190 3191 3193 3195 3197 3198 3198 3200 3201 3202 3203 3204 3205 3206 3206 3207 3209 3210 3211 3212 3213 3214 3215 3216 3217 3218 3219 3220 3222 3223 3224 3225 3226 3226 3228 3229 3229 3230 3231 3232 3234 3234 3236 3236 3237 3237 3238 3239 3240 3241 3242 3242
3145 3145 3146 3148 3150 3151 3151 3152 3154 3156 3156 3154 3155 3157 3157 3158 3159 3160 3161 3163 3164 3165 3166 3168 3170 3172 3174 3176 3177 3178 3179 3181 3184 3186 3189 3191 3192 3194 3196 3197 3198 3200 3200 3201 3203 3204 3205 3205 3206 3207 3209 3210 3211 3212 3213 3214 3215 3216 3217 3218 3219 3221 3222 3223 3224 3225 3226 3227 3229 3230 3230 3231 3231 3232 3234 3235 3236 3236 3237 3238 3239 3239 3240 3241 3242 3243
3143 3144 3145 3147 3149 3150 3150 3151 3152 3155 3156 3153 3154 3156 3156 3157 3159 3160 3161 3163 3164 3165 3166 3168 3171 3173 3174 3175 3177 3177 3178 3180 3183 3184 3186 3189 3191 3193 3195 3196 3197 3199 3200 3201 3203 3204 3205 3205 3206 3207 3208 3210 3211 3212 3213 3214 3215 3216 3217 3219 3220 3221 3222 3223 3225 3226 3227 3228 3229 3230 3230 3231 3231 3232 3234 3234 3235 3236 3237 3238 3239 3240 3241 3241 3242 3243
3143 3144 3144 3146 3147 3148 3149 3151 3152 3155 3156 3154 3153 3155 3155 3156 3159 3161 3161 3163 3164 3165 3166 3168 3171 3173 3175 3175 3177 3177 3178 3180 3183 3185 3185 3188 3190 3192 3194 3195 3196 3199 3200 3201 3203 3204 3205 3205 3205 3207 3208 3210 3211 3212 3213 3214 3215 3216 3217 3219 3220 3221 3222 3223 3225 3226 3227 3228 3229 3230 3230 3231 3232 3233 3234 3234 3235 3236 3237 3238 3239 3240 3241 3242 3243 3244
3142 3142 3143 3144 3146 3147 3149 3150 3153 3155 3155 3154 3153 3155 3156 3155 3158 3162 3163 3164 3165 3165 3166 3168 3170 3173 3175 3176 3176 3177 3178 3180 3182 3184 3185 3186 3187 3190 3193 3194 3195 3197 3199 3200 3202 3203 3204 3204 3205 3206 3208 3209 3211 3212 3213 3214 3215 3216 3217 3219 3220 3221 3223 3224 3225 3226 3227 3228 3229 3230 3231 3231 3232 3233 3234 3235 3235 3236 3237 3238 3239 3240 3241 3242 3243 3244
3141 3141 3143 3143 3143 3144 3147 3150 3152 3154 3155 3154 3154 3155 3156 3156 3158 3162 3163 3165 3165 3165 3166 3169 3171 3173 3174 3175 3176 3176 3177 3179 3180 3181 3183 3184 3185 3187 3191 3193 3194 3196 3197 3199 3201 3203 3203 3204 3204 3206 3207 3209 3210 3211 3212 3213 3215 3216 3217 3218 3220 3221 3223 3224 3225 3226 3228 3228 3229 3230 3231 3232 3233 3234 3235 3235 3236 3237 3238 3239 3239 3240 3241 3242 3243 3244
3140 3140 3142 3142 3142 3143 3146 3149 3151 3154 3154 3154 3156 3156 3155 3157 3160 3162 3163 3163 3164 3164 3165 3169 3171 3171 3172 3172 3174 3175 3176 3176 3177 3178 3180 3183 3184 3185 3188 3192 3193 3194 3196 3198 3200 3201 3202 3203 3204 3206 3207 3208 3209 3211 3212 3213 3214 3216 3217 3218 3219 3221 3222 3224 3225 3226 3227 3228 3229 3230 3231 3232 3233 3234 3235 3235 3236 3238 3238 3239 3240 3240 3241 3242 3243 3244
3140 3141 3142 3143 3143 3145 3147 3148 3150 3152 3153 3154 3157 3158 3157 3156 3157 3161 3162 3161 3163 3163 3163 3166 3168 3169 3170 3170 3171 3173 3173 3172 3173 3175 3178 3181 3183 3185 3187 3189 3192 3193 3194 3196 3198 3200 3201 3202 3203 3205 3206 3208 3209 3210 3211 3212 3214 3215 3216 3218 3219 3221 3222 3224 3225 3226 3227 3228 3229 3230 3231 3232 3233 3234 3235 3236 3237 3238 3239 3239 3240 3240 3241 3242 3243 3243
3139 3140 3142 3144 3145 3146 3147 3148 3149 3151 3153 3155 3156 3159 3159 3158 3157 3158 3160 3161 3164 3163 3162 3164 3165 3166 3167 3167 3168 3169 3169 3169 3171 3173 3175 3178 3181 3183 3185 3187 3190 3191 3193 3195 3197 3199 3201 3202 3203 3204 3206 3207 3208 3209 3210 3211 3213 3214 3215 3217 3218 3220 3221 3223 3224 3226 3227 3228 3229 3230 3231 3232 3233 3234 3235 3236 3237 3238 3238 3239 3240 3241 3241 3242 3243 3243
3139 3139 3141 3143 3145 3146 3147 3147 3148 3149 3152 3155 3156 3157 3158 3157 3157 3160 3161 3162 3162 3161 3161 3162 3164 3166 3166 3165 3165 3166 3167 3167 3168 3169 3172 3174 3177 3181 3183 3185 3188 3190 3192 3194 3196 3197 3199 3201 3202 3203 3205 3206 3207 3208 3209 3211 3212 3213 3215 3216 3218 3219 3221 3222 3224 3225 3226 3227 3229 3230 3231 3232 3233 3234 3235 3235 3237 3238 3238 3239 3240 3241 3241 3242 3242 3243
3138 3138 3139 3142 3143 3145 3145 3146 3146 3149 3152 3154 3156 3156 3155 3155 3159 3162 3161 3160 3160 3160 3161 3161 3163 3165 3164 3163 3164 3165 3166 3166 3166 3168 3169 3172 3175 3178 3181 3183 3186 3189 3191 3192 3194 3196 3198 3199 3201 3202 3204 3205 3206 3207 3208 3210 3211 3212 3214 3216 3217 3218 3220 3221 3223 3224 3225 3227 3228 3230 3231 3232 3233 3234 3234 3235 3236 3237 3238 3239 3239 3240 3241 3242 3242 3243
3137 3137 3139 3142 3143 3142 3143 3144 3145 3147 3151 3152 3153 3153 3153 3155 3160 3160 3157 3158 3160 3160 3160 3161 3163 3164 3163 3163 3164 3164 3166 3166 3166 3167 3169 3171 3174 3176 3179 3182 3185 3188 3189 3191 3192 3194 3196 3198 3200 3201 3202 3204 3205 3206 3208 3209 3210 3212 3213 3215 3216 3218 3219 3220 3222 3223 3225 3226 3228 3229 3231 3232 3233 3234 3234 3235 3236 3237 3238 3238 3239 3240 3241 3241 3242 3243
3134 3134 3135 3138 3141 3141 3141 3143 3144 3147 3149 3150 3151 3152 3151 3153 3157 3157 3154 3159 3162 3160 3160 3164 3165 3163 3161 3162 3162 3163 3166 3166 3166 3168 3169 3171 3174 3176 3179 3180 3182 3186 3188 3189 3191 3193 3195 3197 3198 3200 3201 3203 3204 3206 3207 3208 3209 3211 3212 3214 3216 3217 3218 3219 3221 3222 3224 3225 3227 3229 3230 3231 3232 3233 3234 3235 3236 3237 3237 3238 3239 3240 3241 3241 3242 3242
3132 3131 3131 3133 3137 3139 3141 3142 3144 3146 3147 3148 3149 3150 3150 3151 3153 3154 3153 3158 3161 3158 3160 3164 3163 3161 3160 3160 3161 3162 3164 3165 3167 3168 3168 3169 3171 3174 3176 3178 3180 3183 3186 3188 3189 3191 3193 3195 3197 3198 3200 3202 3203 3205 3207 3208 3209 3210 3212 3213 3215 3216 3217 3219 3220 3222 3223 3224 3226 3228 3229 3230 3231 3233 3234 3235 3236 3236 3237 3238 3239 3239 3241 3241 3241 3242
3133 3131 3130 3132 3135 3137 3140 3142 3144 3145 3144 3145 3147 3147 3148 3150 3152 3153 3152 3154 3156 3155 3157 3160 3160 3160 3160 3161 3162 3163 3163 3165 3166 3167 3168 3168 3169 3171 3173 3175 3177 3180 3184 3186 3188 3190 3192 3194 3195 3197 3199 3201 3202 3204 3206 3207 3208 3210 3211 3213 3214 3215 3217 3218 3220 3221 3222 3223 3225 3227 3228 3230 3231 3232 3233 3234 3236 3236 3237 3238 3238 3239 3240 3241 3241 3241
3135 3132 3129 3132 3135 3136 3139 3142 3143 3144 3144 3144 3146 3146 3147 3150 3152 3153 3152 3152 3152 3152 3154 3156 3157 3160 3161 3161 3162 3163 3163 3165 3166 3167 3168 3168 3168 3169 3171 3173 3175 3179 3182 3185 3187 3189 3191 3193 3194 3195 3197 3200 3201 3203 3205 3206 3208 3209 3211 3212 3213 3215 3216 3217 3219 3220 3221 3223 3224 3226 3227 3229 3230 3231 3233 3234 3235 3236 3237 3238 3238 3239 3240 3240 3241 3242
3137 3134 3130 3133 3135 3135 3139 3141 3141 3143 3143 3144 3145 3146 3147 3148 3150 3152 3153 3152 3151 3151 3151 3151 3154 3159 3161 3161 3161 3162 3163 3164 3165 3166 3167 3167 3167 3168 3169 3171 3174 3178 3181 3182 3184 3187 3189 3191 3193 3194 3196 3198 3200 3202 3203 3205 3207 3208 3210 3211 3213 3214 3215 3217 3218 3219 3220 3222 3223 3225 3226 3228 3229 3231 3232 3234 3235 3236 3237 3238 3238 3239 3239 3240 3240 3241
3138 3136 3133 3133 3134 3135 3138 3140 3139 3140 3142 3144 3145 3146 3146 3147 3150 3152 3152 3150 3150 3152 3154 3154 3155 3158 3160 3160 3160 3163 3164 3163 3164 3165 3166 3166 3166 3167 3168 3169 3172 3176 3178 3179 3182 3185 3188 3190 3191 3192 3195 3197 3199 3200 3202 3204 3206 3207 3209 3210 3211 3213 3214 3215 3217 3218 3220 3221 3222 3224 3226 3227 3229 3230 3231 3233 3234 3235 3236 3237 3238 3238 3239 3239 3240 3240
3138 3137 3135 3134 3134 3135 3135 3136 3138 3139 3141 3143 3145 3145 3144 3145 3149 3151 3151 3149 3149 3152 3157 3159 3158 3157 3157 3159 3160 3162 3164 3162 3163 3165 3165 3165 3166 3166 3167 3169 3171 3173 3175 3178 3181 3182 3185 3187 3189 3192 3193 3195 3198 3199 3201 3203 3205 3206 3208 3209 3210 3212 3213 3214 3215 3217 3219 3220 3221 3223 3225 3226 3228 3229 3230 3232 3233 3234 3235 3237 3237 3238 3239 3239 3239 3240
3138 3137 3136 3134 3134 3134 3133 3135 3137 3138 3139 3142 3143 3143 3142 3143 3146 3148 3148 3148 3148 3149 3152 3154 3156 3156 3156 3157 3159 3161 3161 3160 3161 3164 3165 3165 3166 3166 3167 3168 3170 3171 3173 3175 3177 3178 3181 3184 3187 3189 3191 3193 3195 3197 3200 3202 3203 3205 3206 3208 3209 3211 3212 3213 3215 3216 3218 3219 3220 3222 3223 3225 3226 3228 3229 3231 3232 3233 3234 3235 3236 3237 3238 3239 3239 3240
3138 3138 3138 3135 3133 3133 3132 3134 3136 3137 3139 3140 3141 3142 3142 3142 3143 3144 3143 3144 3146 3147 3148 3149 3152 3155 3156 3157 3158 3160 3159 3159 3160 3162 3164 3164 3164 3165 3166 3166 3168 3169 3169 3171 3173 3176 3181 3183 3185 3186 3189 3191 3192 3194 3196 3198 3199 3202 3204 3206 3208 3209 3211 3212 3214 3215 3216 3218 3219 3220 3222 3223 3225 3226 3228 3229 3231 3232 3233 3234 3235 3236 3237 3238 3239 3239
3139 3140 3140 3138 3135 3133 3131 3131 3133 3136 3138 3137 3137 3140 3142 3141 3141 3141 3141 3142 3144 3145 3147 3149 3152 3156 3157 3157 3157 3157 3157 3159 3160 3160 3161 3162 3163 3164 3164 3165 3167 3167 3166 3170 3175 3179 3182 3183 3183 3185 3188 3191 3192 3193 3195 3196 3197 3200 3203 3205 3206 3208 3210 3211 3212 3214 3215 3216 3218 3219 3220 3222 3223 3225 3226 3228 3229 3230 3232 3233 3234 3235 3236 3237 3238 3239
3141 3142 3141 3140 3137 3134 3131 3130 3130 3133 3136 3136 3134 3136 3140 3141 3142 3142 3141 3141 3143 3144 3146 3148 3152 3155 3156 3157 3157 3156 3157 3160 3160 3159 3160 3160 3161 3162 3163 3164 3165 3166 3167 3172 3177 3179 3180 3181 3183 3185 3188 3191 3193 3194 3197 3199 3200 3201 3203 3205 3206 3208 3209 3210 3211 3212 3214 3215 3216 3218 3219 3220 3222 3223 3225 3226 3228 3229 3230 3231 3233 3234 3235 3236 3237 3237
3142 3142 3142 3141 3138 3134 3131 3130 3130 3132 3135 3136 3134 3134 3136 3140 3142 3142 3141 3141 3141 3143 3144 3145 3147 3150 3153 3155 3156 3156 3158 3161 3161 3159 3159 3159 3159 3160 3161 3162 3164 3166 3168 3171 3175 3178 3180 3181 3183 3185 3188 3190 3193 3195 3197 3199 3201 3202 3203 3204 3206 3207 3209 3209 3210 3211 3213 3214 3215 3216 3217 3219 3220 3222 3223 3225 3226 3228 3229 3230 3231 3232 3233 3235 3236 3236
3141 3141 3142 3142 3140 3136 3132 3132 3132 3132 3133 3134 3134 3133 3133 3137 3141 3142 3140 3139 3139 3141 3144 3144 3144 3147 3151 3153 3154 3156 3158 3160 3161 3160 3158 3157 3158 3159 3159 3161 3163 3165 3168 3171 3175 3179 3179 3180 3183 3185 3187 3189 3192 3194 3196 3198 3200 3201 3202 3203 3205 3206 3207 3208 3209 3210 3212 3213 3214 3215 3216 3217 3219 3220 3222 3223 3225 3226 3227 3228 3229 3230 3231 3232 3234 3235
3141 3141 3141 3140 3140 3138 3136 3135 3135 3134 3132 3133 3135 3135 3133 3134 3138 3141 3140 3139 3139 3141 3144 3146 3146 3148 3152 3153 3153 3156 3158 3158 3159 3159 3157 3156 3158 3158 3159 3159 3161 3163 3166 3170 3174 3178 3179 3181 3183 3184 3186 3188 3190 3192 3195 3197 3198 3199 3201 3202 3203 3204 3205 3207 3207 3208 3210 3212 3213 3213 3215 3216 3217 3219 3220 3221 3223 3224 3225 3226 3227 3229 3229 3230 3231 3233
3140 3140 3140 3139 3139 3138 3138 3138 3137 3136 3135 3134 3135 3136 3135 3134 3136 3137 3138 3139 3140 3142 3143 3145 3146 3148 3151 3153 3153 3156 3158 3158 3158 3158 3157 3156 3157 3157 3158 3159 3160 3162 3164 3167 3171 3175 3178 3180 3182 3183 3185 3187 3189 3191 3192 3194 3195 3197 3199 3200 3202 3203 3204 3206 3206 3207 3209 3211 3212 3213 3214 3215 3216 3217 3218 3219 3221 3223 3224 3225 3226 3227 3227 3228 3229 3231
3140 3139 3139 3139 3138 3138 3138 3138 3138 3138 3136 3134 3134 3136 3137 3137 3137 3136 3136 3137 3140 3141 3140 3141 3144 3147 3150 3153 3153 3155 3156 3156 3156 3157 3157 3156 3156 3156 3157 3158 3160 3162 3164 3166 3169 3172 3175 3177 3180 3182 3184 3186 3188 3189 3190 3191 3193 3195 3197 3199 3200 3201 3202 3204 3205 3206 3208 3209 3210 3211 3212 3213 3214 3215 3216 3218 3219 3220 3222 3223 3224 3225 3225 3226 3228 3229
3139 3139 3139 3139 3138 3137 3137 3137 3137 3138 3137 3134 3134 3134 3134 3135 3134 3134 3134 3136 3139 3141 3139 3138 3142 3146 3149 3152 3153 3154 3154 3155 3155 3156 3156 3157 3158 3156 3155 3157 3160 3162 3164 3166 3168 3171 3173 3176 3178 3180 3182 3184 3185 3187 3188 3189 3190 3192 3195 3196 3198 3199 3200 3201 3202 3204 3205 3206 3207 3208 3210 3211 3212 3213 3214 3216 3217 3218 3219 3221 3222 3223 3224 3225 3226 3226
3139 3139 3139 3138 3137 3136 3136 3135 3135 3136 3135 3134 3133 3132 3132 3133 3132 3133 3134 3134 3136 3140 3140 3139 3142 3146 3148 3152 3153 3154 3154 3154 3154 3155 3155 3156 3157 3157 3156 3157 3160 3162 3164 3166 3168 3171 3173 3175 3177 3179 3181 3182 3184 3185 3186 3186 3188 3189 3191 3193 3195 3196 3197 3198 3199 3200 3201 3202 3202 3203 3205 3207 3209 3210 3212 3213 3214 3215 3217 3218 3219 3220 3222 3223 3223 3224
3139 3139 3138 3138 3137 3135 3135 3135 3134 3134 3134 3135 3136 3135 3135 3135 3135 3135 3135 3135 3135 3138 3140 3141 3144 3146 3148 3151 3153 3153 3153 3153 3153 3154 3154 3154 3156 3158 3158 3158 3161 3163 3165 3166 3168 3169 3171 3172 3174 3176 3178 3180 3182 3183 3184 3185 3186 3187 3188 3190 3191 3193 3194 3195 3196 3197 3198 3198 3198 3199 3200 3203 3205 3207 3208 3210 3211 3212 3214 3215 3216 3217 3218 3219 3220 3221
3138 3138 3137 3137 3137 3136 3135 3135 3136 3137 3138 3139 3139 3138 3137 3137 3137 3136 3136 3137 3137 3139 3140 3143 3145 3147 3148 3149 3150 3151 3152 3153 3152 3153 3153 3153 3155 3156 3157 3159 3162 3163 3164 3165 3166 3168 3169 3170 3173 3175 3176 3178 3180 3181 3182 3183 3184 3185 3186 3187 3189 3190 3192 3193 3194 3195 3195 3195 3196 3197 3199 3200 3202 3204 3205 3206 3207 3208 3209 3211 3212 3213 3215 3216 3217 3217
3137 3137 3137 3137 3137 3136 3136 3136 3138 3139 3140 3140 3140 3139 3139 3138 3138 3137 3136 3137 3139 3140 3141 3145 3147 3148 3147 3147 3148 3150 3151 3152 3152 3152 3153 3153 3154 3156 3158 3159 3162 3162 3163 3165 3166 3167 3168 3170 3173 3174 3176 3177 3178 3180 3181 3182 3183 3184 3185 3186 3187 3188 3189 3190 3191 3192 3192 3193 3194 3195 3196 3197 3199 3201 3202 3204 3204 3205 3205 3207 3208 3210 3211 3212 3212 3212
3137 3137 3136 3137 3137 3136 3137 3138 3139 3139 3140 3141 3142 3142 3141 3140 3139 3138 3138 3140 3142 3142 3143 3145 3148 3149 3147 3147 3149 3150 3150 3150 3150 3151 3152 3152 3154 3156 3158 3160 3161 3162 3162 3164 3165 3166 3167 3169 3171 3173 3174 3176 3177 3178 3180 3181 3182 3182 3183 3184 3185 3186 3187 3188 3189 3190 3190 3191 3192 3193 3194 3195 3197 3199 3200 3202 3202 3202 3202 3203 3205 3206 3207 3208 3208 3209
3136 3136 3136 3137 3137 3137 3138 3139 3140 3140 3141 3142 3143 3143 3143 3143 3142 3142 3143 3145 3145 3145 3145 3146 3148 3148 3147 3148 3150 3150 3149 3149 3149 3150 3151 3152 3153 3155 3157 3158 3160 3161 3161 3162 3164 3166 3166 3167 3169 3171 3172 3174 3176 3177 3178 3179 3180 3181 3182 3182 3183 3184 3185 3186 3187 3187 3188 3190 3190 3191 3192 3194 3195 3197 3198 3198 3199 3198 3199 3200 3202 3202 3203 3205 3206 3207
3136 3135 3135 3137 3137 3137 3138 3139 3140 3141 3142 3143 3144 3144 3143 3144 3145 3146 3147 3148 3147 3147 3146 3147 3148 3147 3146 3148 3150 3150 3149 3148 3148 3149 3150 3152 3153 3154 3156 3157 3158 3159 3160 3162 3164 3166 3167 3168 3169 3170 3171 3173 3174 3175 3177 3178 3178 3179 3180 3181 3181 3182 3182 3183 3184 3185 3186 3187 3188 3189 3190 3192 3193 3194 3194 3195 3195 3195 3195 3196 3197 3199 3201 3203 3204 3204
3135 3134 3135 3136 3137 3137 3138 3139 3140 3142 3143 3143 3143 3144 3144 3144 3145 3147 3148 3149 3149 3148 3147 3148 3150 3149 3149 3149 3149 3149 3149 3149 3149 3149 3150 3152 3154 3155 3156 3157 3159 3160 3161 3162 3164 3165 3167 3168 3170 3171 3172 3173 3174 3175 3176 3177 3178 3178 3179 3179 3179 3179 3180 3180 3181 3182 3184 3185 3186 3187 3189 3190 3191 3192 3192 3192 3192 3192 3192 3194 3196 3198 3200 3201 3201 3200
3134 3134 3134 3135 3136 3137 3138 3139 3140 3142 3143 3143 3143 3143 3144 3145 3145 3146 3148 3150 3150 3149 3149 3150 3151 3152 3152 3152 3151 3150 3150 3150 3150 3150 3152 3153 3155 3156 3157 3158 3160 3161 3162 3163 3164 3165 3166 3167 3169 3171 3172 3173 3174 3175 3175 3176 3176 3177 3177 3177 3177 3177 3178 3178 3179 3180 3181 3183 3184 3185 3186 3187 3189 3190 3190 3190 3189 3189 3189 3192 3194 3195 3197 3198 3198 3197
3133 3133 3133 3134 3135 3136 3137 3139 3141 3142 3142 3142 3142 3143 3144 3145 3145 3146 3148 3150 3150 3150 3150 3150 3152 3153 3153 3153 3152 3151 3151 3151 3152 3152 3153 3155 3156 3157 3158 3159 3160 3161 3162 3163 3163 3163 3165 3166 3167 3169 3171 3172 3173 3174 3174 3174 3175 3175 3175 3175 3175 3176 3176 3176 3177 3178 3179 3181 3182 3183 3183 3184 3185 3187 3188 3188 3187 3187 3188 3189 3190 3192 3194 3194 3194 3194
3133 3133 3134 3134 3135 3136 3137 3138 3140 3142 3142 3142 3142 3142 3143 3144 3145 3146 3148 3149 3149 3150 3150 3150 3152 3153 3153 3153 3152 3152 3152 3153 3153 3154 3155 3155 3156 3157 3158 3158 3159 3160 3161 3162 3162 3162 3163 3165 3166 3167 3169 3170 3171 3171 3171 3172 3172 3172 3173 3173 3174 3175 3175 3176 3176 3177 3178 3179 3180 3181 3181 3181 3182 3184 3185 3185 3185 3186 3187 3188 3188 3190 3191 3191 3191 3192
3133 3134 3135 3135 3135 3136 3137 3138 3140 3142 3143 3143 3143 3143 3143 3144 3145 3146 3147 3148 3148 3149 3149 3150 3151 3152 3153 3153 3152 3152 3153 3153 3154 3155 3155 3155 3156 3156 3157 3158 3158 3159 3160 3161 3161 3161 3162 3164 3165 3165 3166 3167 3169 3169 3169 3170 3170 3170 3171 3172 3173 3174 3174 3175 3176 3176 3177 3178 3178 3179 3180 3180 3180 3181 3182 3183 3184 3185 3186 3187 3187 3188 3189 3189 3189 3190
3134 3135 3136 3135 3135 3137 3139 3140 3141 3142 3143 3143 3143 3143 3144 3144 3145 3146 3147 3147 3147 3148 3149 3150 3150 3151 3152 3153 3153 3153 3153 3154 3154 3155 3155 3156 3156 3157 3157 3158 3158 3159 3159 3160 3161 3161 3162 3163 3164 3165 3166 3166 3167 3168 3168 3169 3169 3169 3170 3171 3171 3172 3173 3174 3175 3175 3176 3176 3177 3178 3179 3179 3179 3179 3179 3181 3182 3184 3184 3184 3185 3186 3187 3187 3187 3187
3134 3135 3135 3135 3136 3138 3139 3140 3141 3141 3142 3142 3143 3143 3143 3144 3145 3145 3146 3147 3147 3147 3148 3149 3150 3150 3151 3152 3152 3153 3153 3154 3155 3155 3155 3156 3157 3157 3158 3158 3159 3159 3159 3159 3160 3161 3162 3163 3164 3164 3165 3165 3166 3167 3168 3168 3169 3169 3169 3170 3170 3171 3172 3173 3174 3175 3175 3175 3176 3176 3177 3178 3178 3178 3178 3179 3180 3180 3181 3182 3182 3183 3184 3185 3185 3185
3133 3135 3135 3136 3137 3138 3139 3140 3141 3141 3142 3142 3143 3143 3143 3144 3144 3145 3146 3146 3147 3147 3148 3149 3149 3150 3151 3151 3151 3152 3153 3153 3154 3155 3156 3157 3157 3158 3159 3159 3159 3159 3159 3160 3160 3161 3162 3163 3163 3164 3164 3165 3165 3166 3167 3168 3168 3168 3169 3169 3170 3170 3171 3172 3173 3174 3174 3174 3175 3175 3176 3176 3177 3177 3177 3177 3178 3178 3179 3179 3180 3181 3182 3183 3183 3183
3133 3135 3136 3137 3137 3138 3139 3140 3141 3141 3142 3142 3143 3143 3143 3144 3144 3145 3146 3146 3147 3147 3147 3148 3149 3150 3151 3151 3151 3152 3153 3154 3154 3155 3156 3157 3158 3158 3159 3159 3159 3159 3159 3160 3160 3161 3162 3162 3163 3164 3164 3165 3165 3166 3166 3167 3168 3168 3168 3169 3169 3170 3170 3171 3171 3172 3173 3173 3174 3174 3175 3176 3176 3176 3176 3176 3176 3177 3177 3177 3178 3179 3179 3180 3181 3181
3134 3135 3137 3138 3138 3138 3140 3141 3142 3142 3142 3143 3143 3143 3143 3144 3144 3145 3145 3146 3146 3147 3147 3148 3149 3149 3150 3151 3151 3152 3153 3154 3155 3156 3157 3157 3158 3158 3159 3159 3159 3159 3159 3159 3160 3160 3161 3162 3163 3163 3164 3164 3165 3166 3166 3167 3167 3167 3168 3168 3169 3169 3170 3170 3170 3171 3171 3172 3173 3173 3174 3175 3175 3175 3175 3175 3175 3176 3176 3176 3177 3177 3177 3178 3178 3179
3134 3136 3137 3138 3138 3139 3139 3141 3142 3142 3143 3143 3143 3143 3143 3144 3144 3145 3145 3145 3146 3147 3147 3148 3148 3149 3150 3151 3151 3152 3152 3153 3154 3155 3156 3156 3157 3158 3158 3159 3158 3158 3159 3159 3159 3159 3160 3161 3162 3162 3163 3164 3164 3165 3165 3166 3166 3167 3167 3167 3168 3168 3169 3169 3169 3169 3170 3170 3171 3172 3172 3173 3174 3174 3174 3174 3174 3175 3175 3176 3176 3176 3176 3177 3177 3178
3135 3136 3137 3138 3139 3140 3140 3140 3141 3143 3143 3142 3142 3142 3143 3143 3144 3144 3145 3145 3145 3146 3146 3147 3147 3148 3149 3150 3150 3151 3152 3152 3153 3154 3154 3155 3156 3157 3157 3158 3158 3158 3158 3158 3159 3159 3159 3160 3160 3161 3161 3162 3163 3163 3164 3164 3165 3166 3166 3166 3167 3167 3168 3168 3168 3168 3168 3169 3169 3170 3170 3171 3172 3172 3173 3173 3173 3174 3174 3174 3175 3175 3176 3176 3177 3177
3134 3135 3136 3137 3138 3139 3139 3140 3141 3142 3142 3141 3141 3142 3142 3143 3143 3144 3144 3144 3144 3145 3145 3145 3146 3147 3148 3149 3149 3150 3151 3152 3152 3152 3153 3154 3155 3155 3156 3156 3157 3157 3157 3157 3158 3158 3159 3159 3159 3160 3160 3161 3161 3162 3162 3163 3163 3164 3164 3165 3165 3165 3166 3166 3167 3167 3167 3167 3167 3168 3168 3169 3170 3170 3171 3171 3172 3173 3173 3173 3174 3174 3175 3175 3176 3176